Weather History for Fort Smith, AR

Change the Weather History Date:

Thursday, October 27, 2011

  Actual Average Record
Temperature  
Mean Temperature 53 °F 59 °F  
Max Temperature 57 °F 71 °F 87 °F (1999)
Min Temperature 49 °F 47 °F 28 °F (1957)
Degree Days  
Heating Degree Days 12 7  
Month to date heating degree days 61 107  
Since 1 July heating degree days 69 124  
Cooling Degree Days 0 1  
Month to date cooling degree days 106 63  
Year to date cooling degree days 2832 2041  
Growing Degree Days 2 (Base 50)    
Moisture  
Dew Point 47 °F    
Average Humidity 76    
Maximum Humidity 89    
Minimum Humidity 62    
Precipitation  
Precipitation 1.25 in 0.14 in 5.30 in (1951)
Month to date precipitation 3.71 3.75  
Year to date precipitation 35.92 37.16  
Sea Level Pressure  
Sea Level Pressure 30.05 in    
Wind  
Wind Speed 9 mph (NNE)    
Max Wind Speed 20 mph    
Max Gust Speed 24 mph    
Visibility 7 miles    
Events Rain , Thunderstorm    
T = Trace of Precipitation, MM = Missing Value Source: NWS Daily Summary

Daily Weather History Graph

Daily Weather History Graph

Search for Another Location

Airport:

Trip Planner

Search our weather history database for the weather conditions in past years. The results will help you decide how hot, cold, wet, or windy it might be!

Date:

Astronomy

Oct. 27, 2011 Rise Set
Actual Time 7:34 AM CDT 6:28 PM CDT
Civil Twilight 7:07 AM CDT 6:54 PM CDT
Nautical Twilight 6:38 AM CDT 7:23 PM CDT
Astronomical Twilight 6:08 AM CDT 7:53 PM CDT
Moon 8:33 AM CDT (10/27) 7:03 PM CDT (10/27)
Length of Visible Light 11h 46m
Length of Day
10h 54m
New Moon, 1% of the Moon is Illuminated
Oct 27
New Moon
Nov 2
First Quarter
Nov 10
Full
Nov 18
Last Quarter
Nov 25
New

Hourly Weather History & Observations

Time (CDT) Temp. Dew Point Humidity Pressure Visibility Wind Dir Wind Speed Gust Speed Precip Events Conditions
12:53 AM 57.0 °F 48.9 °F 74% 29.93 in 10.0 mi NW 6.9 mph - 0.00 in   Overcast
1:31 AM 57.2 °F 48.2 °F 72% 29.93 in 10.0 mi NW 4.6 mph - 0.00 in Rain Light Rain
1:53 AM 57.2 °F 48.2 °F 72% 29.94 in 10.0 mi NW 5.8 mph - N/A   Overcast
2:53 AM 57.2 °F 48.2 °F 72% 29.93 in 10.0 mi North 9.2 mph - N/A   Overcast
3:53 AM 57.0 °F 46.9 °F 69% 29.93 in 10.0 mi North 11.5 mph - N/A   Overcast
4:42 AM 57.2 °F 44.6 °F 63% 29.95 in 10.0 mi NNE 9.2 mph 18.4 mph N/A   Overcast
4:53 AM 57.0 °F 44.1 °F 62% 29.94 in 10.0 mi NNE 15.0 mph 23.0 mph N/A   Overcast
5:53 AM 55.0 °F 44.1 °F 67% 29.99 in 9.0 mi NNE 13.8 mph - 0.01 in Rain Rain
6:11 AM 53.6 °F 44.6 °F 72% 30.02 in 3.0 mi North 15.0 mph 24.2 mph 0.06 in Rain , Thunderstorm Heavy Rain
6:19 AM 51.8 °F 46.4 °F 82% 30.02 in 2.5 mi NNE 9.2 mph - 0.14 in Rain , Thunderstorm Heavy Rain
6:26 AM 51.8 °F 46.4 °F 82% 30.02 in 6.0 mi North 6.9 mph - 0.15 in Rain Light Rain
6:53 AM 52.0 °F 48.0 °F 86% 30.04 in 4.0 mi North 8.1 mph - 0.19 in Rain , Thunderstorm Heavy Thunderstorms and Rain
7:26 AM 51.8 °F 48.2 °F 88% 30.04 in 2.5 mi Variable 4.6 mph - 0.11 in Rain , Thunderstorm Heavy Thunderstorms and Rain
7:51 AM 50.0 °F 46.4 °F 87% 30.03 in 3.0 mi North 6.9 mph - 0.32 in Rain Heavy Rain
7:53 AM 51.1 °F 46.9 °F 86% 30.03 in 3.0 mi North 6.9 mph - 0.32 in Rain Rain
8:25 AM 51.8 °F 46.4 °F 82% 30.07 in 1.8 mi NW 4.6 mph - 0.12 in Rain Heavy Rain
8:40 AM 51.8 °F 48.2 °F 88% 30.06 in 3.0 mi North 6.9 mph - 0.18 in Rain Rain
8:53 AM 51.1 °F 48.0 °F 89% 30.06 in 4.0 mi North 4.6 mph - 0.20 in Rain Light Rain
9:53 AM 52.0 °F 48.0 °F 86% 30.08 in 7.0 mi North 6.9 mph - 0.05 in Rain Light Rain
10:53 AM 52.0 °F 46.9 °F 83% 30.07 in 10.0 mi NE 9.2 mph - 0.01 in   Overcast
11:51 AM 51.8 °F 48.2 °F 88% 30.11 in 2.5 mi NW 6.9 mph - 0.03 in Rain Rain
11:53 AM 51.1 °F 48.0 °F 89% 30.11 in 2.5 mi NW 6.9 mph - 0.03 in Rain Rain
12:48 PM 51.8 °F 46.4 °F 82% 30.11 in 4.0 mi North 9.2 mph - 0.10 in Rain Light Rain
12:53 PM 50.0 °F 46.0 °F 86% 30.10 in 4.0 mi North 9.2 mph - 0.10 in Rain Light Rain
1:14 PM 50.0 °F 46.4 °F 87% 30.09 in 6.0 mi North 10.4 mph - 0.02 in Rain Rain
1:41 PM 50.0 °F 46.4 °F 87% 30.08 in 7.0 mi NE 8.1 mph - 0.05 in Rain Light Rain
1:53 PM 50.0 °F 46.9 °F 89% 30.06 in 10.0 mi ENE 9.2 mph - 0.05 in Rain Light Rain
2:16 PM 50.0 °F 46.4 °F 87% 30.05 in 10.0 mi NE 9.2 mph - 0.01 in Rain Light Rain
2:39 PM 51.8 °F 46.4 °F 82% 30.05 in 10.0 mi NE 10.4 mph - 0.01 in   Overcast
2:53 PM 51.1 °F 46.9 °F 86% 30.05 in 10.0 mi NE 9.2 mph - 0.01 in Rain Light Rain
3:01 PM 51.8 °F 46.4 °F 82% 30.05 in 10.0 mi NE 10.4 mph - 0.00 in Rain Light Rain
3:53 PM 51.1 °F 46.0 °F 83% 30.04 in 10.0 mi NE 12.7 mph - 0.02 in Rain Light Rain
4:53 PM 51.1 °F 45.0 °F 80% 30.06 in 10.0 mi NE 10.4 mph - 0.00 in   Overcast
5:53 PM 51.1 °F 45.0 °F 80% 30.08 in 9.0 mi NNE 8.1 mph - 0.00 in Rain Light Rain
6:53 PM 51.1 °F 46.0 °F 83% 30.09 in 10.0 mi NNE 5.8 mph - 0.01 in Rain Light Rain
7:53 PM 51.1 °F 46.0 °F 83% 30.12 in 10.0 mi North 4.6 mph - 0.00 in Rain Light Rain
8:53 PM 50.0 °F 45.0 °F 83% 30.12 in 8.0 mi NNE 12.7 mph - 0.02 in Rain Light Rain
9:53 PM 50.0 °F 45.0 °F 83% 30.14 in 10.0 mi North 8.1 mph - 0.02 in   Overcast
10:53 PM 48.9 °F 46.0 °F 90% 30.15 in 6.0 mi NNE 4.6 mph - 0.10 in Rain Rain
11:53 PM 48.9 °F 44.1 °F 83% 30.14 in 10.0 mi NNE 9.2 mph - 0.10 in Rain Light Rain